When you browse on this site, cookies collect data to enhance your experience and personalize the content and advertising you see.
Visit our Privacy Policy to learn more. By continuing to use the site, you agree to this use of cookies and data.
  • In Österreich
  • Länderverzeichnis
  • Für 7 Tage
  • Wassertemperatur
  • Satellitenkarten
  • Wetterkarte
  • News
  • Widgets
  • user-avatar
    Anmelden

    Stündliche Wetter Rotorua

    Heute, 22 Juli, Montag

    Zeit Temperatur Niederschläge Wind Luftdruck Luftfeuchtigkeit
    00:00 +5°C° 0 mm 1 m/S 721 mmHg 92%
    01:00 +5°C° 0 mm 1 m/S 721 mmHg 92%
    02:00 +4°C° 0 mm 1 m/S 721 mmHg 92%
    03:00 +4°C° 0 mm 1 m/S 721 mmHg 93%
    04:00 +4°C° 0 mm 1 m/S 722 mmHg 93%
    05:00 +4°C° 0 mm 1 m/S 722 mmHg 93%
    06:00 +4°C° 0 mm 1 m/S 722 mmHg 91%
    07:00 +5°C° 0 mm 1 m/S 723 mmHg 86%
    08:00 +6°C° 0 mm 1 m/S 723 mmHg 81%
    09:00 +7°C° 0 mm 1 m/S 724 mmHg 75%
    10:00 +9°C° 0 mm 1 m/S 724 mmHg 63%
    11:00 +11°C° 0 mm 0 m/S 724 mmHg 51%
    12:00 +14°C° 0 mm 1 m/S 724 mmHg 41%
    13:00 +14°C° 0 mm 1 m/S 724 mmHg 41%
    14:00 +15°C° 0 mm 1 m/S 723 mmHg 40%
    15:00 +15°C° 0 mm 1 m/S 723 mmHg 39%
    16:00 +12°C° 0 mm 1 m/S 723 mmHg 48%
    17:00 +10°C° 0 mm 1 m/S 723 mmHg 58%
    18:00 +8°C° 0 mm 1 m/S 723 mmHg 69%
    19:00 +7°C° 0 mm 1 m/S 723 mmHg 74%
    20:00 +7°C° 0 mm 1 m/S 724 mmHg 79%
    21:00 +6°C° 0 mm 1 m/S 724 mmHg 84%
    22:00 +6°C° 0 mm 1 m/S 724 mmHg 87%
    23:00 +5°C° 0 mm 1 m/S 724 mmHg 90%

    Morgen, 23 Juli, Dienstag

    Zeit Temperatur Niederschläge Wind Luftdruck Luftfeuchtigkeit
    00:00 +5°C° 0 mm 1 m/S 724 mmHg 94%
    01:00 +5°C° 0 mm 1 m/S 724 mmHg 94%
    02:00 +5°C° 0 mm 1 m/S 724 mmHg 94%
    03:00 +4°C° 0 mm 1 m/S 724 mmHg 95%
    04:00 +4°C° 0 mm 1 m/S 724 mmHg 95%
    05:00 +4°C° 0 mm 1 m/S 723 mmHg 95%
    06:00 +4°C° 0 mm 1 m/S 723 mmHg 95%
    07:00 +5°C° 0 mm 1 m/S 724 mmHg 91%
    08:00 +7°C° 0 mm 1 m/S 724 mmHg 87%
    09:00 +8°C° 0 mm 1 m/S 725 mmHg 82%
    10:00 +9°C° 0 mm 0 m/S 725 mmHg 73%
    11:00 +12°C° 0 mm 0 m/S 725 mmHg 63%
    12:00 +14°C° 0 mm 0 m/S 725 mmHg 54%
    13:00 +14°C° 0 mm 0 m/S 725 mmHg 54%
    14:00 +14°C° 0 mm 0 m/S 724 mmHg 55%
    15:00 +14°C° 0 mm 0 m/S 724 mmHg 55%
    16:00 +12°C° 0.1 mm 0 m/S 724 mmHg 68%
    17:00 +10°C° 0.1 mm 0 m/S 724 mmHg 81%
    18:00 +7°C° 0.1 mm 0 m/S 724 mmHg 93%
    19:00 +7°C° 0 mm 0 m/S 724 mmHg 94%
    20:00 +7°C° 0 mm 0 m/S 724 mmHg 95%
    21:00 +6°C° 0 mm 0 m/S 724 mmHg 96%
    22:00 +6°C° 0 mm 0 m/S 724 mmHg 96%
    23:00 +6°C° 0 mm 0 m/S 724 mmHg 96%

    übermorgen, 24 Juli, Mittwoch

    Zeit Temperatur Niederschläge Wind Luftdruck Luftfeuchtigkeit
    00:00 +5°C° 0 mm 0 m/S 724 mmHg 96%
    01:00 +5°C° 0 mm 0 m/S 724 mmHg 96%
    02:00 +5°C° 0 mm 0 m/S 724 mmHg 96%
    03:00 +6°C° 0 mm 1 m/S 724 mmHg 97%
    04:00 +6°C° 0 mm 1 m/S 724 mmHg 97%
    05:00 +6°C° 0 mm 1 m/S 724 mmHg 96%
    06:00 +6°C° 0 mm 1 m/S 724 mmHg 96%
    07:00 +6°C° 0 mm 0 m/S 725 mmHg 94%
    08:00 +6°C° 0 mm 0 m/S 725 mmHg 92%
    09:00 +7°C° 0 mm 0 m/S 725 mmHg 90%
    10:00 +9°C° 0 mm 0 m/S 725 mmHg 81%
    11:00 +11°C° 0 mm 0 m/S 726 mmHg 72%
    12:00 +14°C° 0 mm 1 m/S 726 mmHg 63%
    13:00 +14°C° 0.1 mm 1 m/S 725 mmHg 66%
    14:00 +14°C° 0.1 mm 1 m/S 725 mmHg 69%
    15:00 +13°C° 0.1 mm 1 m/S 725 mmHg 72%
    16:00 +12°C° 0.2 mm 1 m/S 725 mmHg 81%
    17:00 +10°C° 0.2 mm 1 m/S 725 mmHg 89%
    18:00 +7°C° 0.2 mm 0 m/S 725 mmHg 98%
    19:00 +7°C° 0 mm 0 m/S 725 mmHg 98%
    20:00 +6°C° 0 mm 0 m/S 725 mmHg 98%
    21:00 +6°C° 0 mm 0 m/S 726 mmHg 98%
    22:00 +6°C° 0 mm 0 m/S 726 mmHg 98%
    23:00 +6°C° 0 mm 0 m/S 726 mmHg 97%

    25 Juli, Donnerstag

    Zeit Temperatur Niederschläge Wind Luftdruck Luftfeuchtigkeit
    00:00 +6°C° 0 mm 0 m/S 726 mmHg 97%
    01:00 +6°C° 0 mm 0 m/S 726 mmHg 97%
    02:00 +5°C° 0 mm 0 m/S 725 mmHg 98%
    03:00 +5°C° 0 mm 0 m/S 725 mmHg 98%
    04:00 +5°C° 0 mm 0 m/S 725 mmHg 98%
    05:00 +5°C° 0 mm 0 m/S 725 mmHg 98%
    06:00 +5°C° 0 mm 0 m/S 725 mmHg 98%
    07:00 +5°C° 0 mm 0 m/S 726 mmHg 97%
    08:00 +7°C° 0 mm 1 m/S 726 mmHg 96%
    09:00 +8°C° 0 mm 1 m/S 726 mmHg 96%
    10:00 +9°C° 0 mm 1 m/S 726 mmHg 93%
    11:00 +10°C° 0 mm 1 m/S 726 mmHg 90%
    12:00 +10°C° 0 mm 2 m/S 726 mmHg 87%
    13:00 +10°C° 0.1 mm 2 m/S 725 mmHg 89%
    14:00 +10°C° 0.1 mm 2 m/S 725 mmHg 90%
    15:00 +10°C° 0.1 mm 2 m/S 724 mmHg 91%
    16:00 +9°C° 0.2 mm 2 m/S 724 mmHg 93%
    17:00 +9°C° 0.2 mm 2 m/S 724 mmHg 94%
    18:00 +9°C° 0.2 mm 2 m/S 724 mmHg 96%
    19:00 +9°C° 0.3 mm 2 m/S 724 mmHg 96%
    20:00 +9°C° 0.3 mm 2 m/S 725 mmHg 97%
    21:00 +9°C° 0.3 mm 2 m/S 725 mmHg 97%
    22:00 +9°C° 0.5 mm 2 m/S 725 mmHg 97%
    23:00 +9°C° 0.5 mm 2 m/S 725 mmHg 97%

    26 Juli, Freitag

    Zeit Temperatur Niederschläge Wind Luftdruck Luftfeuchtigkeit
    00:00 +9°C° 0.5 mm 3 m/S 725 mmHg 97%
    01:00 +9°C° 1.4 mm 3 m/S 724 mmHg 98%
    02:00 +9°C° 1.4 mm 3 m/S 724 mmHg 98%
    03:00 +9°C° 1.4 mm 3 m/S 724 mmHg 98%
    04:00 +9°C° 3.5 mm 3 m/S 724 mmHg 98%
    05:00 +9°C° 3.5 mm 3 m/S 724 mmHg 98%
    06:00 +9°C° 3.5 mm 3 m/S 724 mmHg 98%
    07:00 +9°C° 4.9 mm 3 m/S 725 mmHg 98%
    08:00 +8°C° 4.9 mm 3 m/S 725 mmHg 98%
    09:00 +8°C° 4.9 mm 2 m/S 725 mmHg 98%
    10:00 +8°C° 4.1 mm 2 m/S 725 mmHg 98%
    11:00 +8°C° 4.1 mm 2 m/S 725 mmHg 98%
    12:00 +9°C° 4.1 mm 2 m/S 725 mmHg 98%
    13:00 +9°C° 2.8 mm 2 m/S 725 mmHg 98%
    14:00 +9°C° 2.8 mm 2 m/S 725 mmHg 98%
    15:00 +9°C° 2.8 mm 2 m/S 725 mmHg 98%
    16:00 +9°C° 2 mm 2 m/S 725 mmHg 98%
    17:00 +9°C° 2 mm 2 m/S 725 mmHg 99%
    18:00 +9°C° 2 mm 1 m/S 725 mmHg 99%
    19:00 +9°C° 1.1 mm 2 m/S 726 mmHg 99%
    20:00 +9°C° 1.1 mm 2 m/S 726 mmHg 99%
    21:00 +9°C° 1.1 mm 3 m/S 726 mmHg 98%
    22:00 +9°C° 0.6 mm 2 m/S 726 mmHg 99%
    23:00 +9°C° 0.6 mm 2 m/S 727 mmHg 99%

    27 Juli, Samstag

    Zeit Temperatur Niederschläge Wind Luftdruck Luftfeuchtigkeit
    00:00 +9°C° 0.6 mm 2 m/S 727 mmHg 99%
    01:00 +9°C° 0.7 mm 2 m/S 727 mmHg 98%
    02:00 +9°C° 0.7 mm 2 m/S 727 mmHg 98%
    03:00 +9°C° 0.7 mm 2 m/S 727 mmHg 98%
    04:00 +9°C° 0.6 mm 2 m/S 727 mmHg 98%
    05:00 +9°C° 0.6 mm 2 m/S 727 mmHg 98%
    06:00 +9°C° 0.6 mm 1 m/S 727 mmHg 98%
    07:00 +9°C° 0.6 mm 1 m/S 727 mmHg 98%
    08:00 +9°C° 0.6 mm 2 m/S 727 mmHg 98%
    09:00 +9°C° 0.6 mm 2 m/S 728 mmHg 97%
    10:00 +9°C° 0.5 mm 2 m/S 727 mmHg 97%
    11:00 +10°C° 0.5 mm 2 m/S 727 mmHg 97%
    12:00 +10°C° 0.5 mm 2 m/S 727 mmHg 96%
    13:00 +12°C° 0.3 mm 2 m/S 727 mmHg 94%
    14:00 +12°C° 0.3 mm 2 m/S 727 mmHg 92%
    15:00 +13°C° 0.3 mm 2 m/S 727 mmHg 89%
    16:00 +12°C° 0.2 mm 2 m/S 727 mmHg 91%
    17:00 +11°C° 0.2 mm 1 m/S 727 mmHg 93%
    18:00 +11°C° 0.2 mm 1 m/S 727 mmHg 96%
    19:00 +10°C° 0 mm 1 m/S 727 mmHg 96%
    20:00 +9°C° 0 mm 1 m/S 727 mmHg 96%
    21:00 +9°C° 0 mm 1 m/S 727 mmHg 97%
    22:00 +9°C° 0.1 mm 1 m/S 727 mmHg 97%
    23:00 +9°C° 0.1 mm 1 m/S 727 mmHg 97%
    Mehr zeigen